Lapse_Rate
6.3 6.6 6.6 6.6 6.5 6.7 6.8 6.9 6.8 6.8 6.9 7.1 7.2 7.3 7.4 7.4 7.2 7.3 7.3 7.0 7.0 7.1 8.0 7.6 7.6 6.8 6.9 6.9 6.8 6.6 6.7 6.7 7.1 6.8 6.4 6.2 6.0 6.9 7.4 8.0 8.7 8.2 8.3 8.2 8.7 9.0 8.4 8.5 7.5 7.2 7.8 8.1 8.4 8.4
6.5 6.6 6.9 7.0 6.9 6.7 6.7 6.8 6.7 6.8 6.9 7.1 7.3 7.5 7.5 7.4 7.4 7.5 7.4 7.1 7.1 7.1 7.7 7.5 7.7 7.6 7.5 7.2 6.6 6.6 6.3 6.4 7.0 6.8 6.2 6.2 6.3 6.6 7.1 7.7 8.2 8.1 8.2 8.8 8.4 8.3 8.4 8.0 8.2 8.2 8.4 7.8 8.0 8.0
6.7 6.9 6.9 6.8 6.6 6.5 6.5 6.7 6.8 7.0 7.1 7.2 7.3 7.4 7.5 7.4 7.4 7.4 7.3 7.3 7.3 7.3 7.8 7.7 7.9 7.7 7.5 7.8 7.2 6.3 6.4 6.7 6.4 6.3 6.1 6.1 6.2 6.2 6.6 7.1 7.7 8.5 9.1 9.2 9.1 9.0 8.8 8.0 7.4 7.3 7.8 7.5 7.3 7.6
6.7 6.6 6.5 6.5 6.4 6.5 6.6 6.8 7.0 7.1 7.1 7.2 7.3 7.4 7.4 7.4 7.3 7.3 7.3 7.2 7.1 7.1 7.0 7.7 7.0 7.4 7.4 7.7 7.3 7.5 7.1 6.3 6.5 6.1 6.0 5.7 5.9 6.0 6.3 6.8 6.9 7.5 8.1 8.6 9.4 8.9 7.9 7.5 6.9 6.6 7.7 7.4 7.4 7.8
6.7 6.6 6.4 6.5 6.6 6.7 6.7 6.9 6.9 7.0 7.0 7.1 7.2 7.2 7.3 7.3 7.3 7.2 7.2 7.0 7.0 6.9 7.0 7.5 7.6 7.5 7.4 7.4 7.5 7.0 6.9 6.4 6.1 5.8 5.8 5.8 5.8 5.5 5.6 5.7 6.2 6.5 6.8 7.4 7.9 7.9 8.0 7.3 6.9 7.2 7.5 7.3 7.2 7.2
6.7 6.6 6.6 6.7 6.9 7.0 7.0 7.0 7.1 7.2 7.3 7.3 7.2 7.1 7.0 6.9 6.9 7.0 7.0 6.9 6.8 6.4 6.4 6.4 7.3 7.6 7.4 7.4 7.5 7.6 7.3 6.2 6.0 6.3 5.7 5.8 5.9 5.6 5.7 5.6 5.4 6.0 5.8 6.0 6.7 6.4 6.5 7.0 7.4 7.4 6.9 6.8 6.8 6.7
6.7 6.6 6.6 6.8 6.8 6.9 7.0 7.0 7.1 7.3 7.2 7.1 7.1 7.1 7.0 7.0 6.8 6.6 6.7 6.6 6.5 6.4 6.3 6.8 7.2 7.2 7.3 7.2 7.0 7.1 6.7 6.7 6.4 6.4 6.2 6.1 5.9 6.0 5.6 5.2 5.1 5.1 5.5 5.7 6.2 5.0 5.2 6.6 6.7 6.7 6.9 6.4 5.9 5.8
6.5 6.6 6.6 6.7 6.8 6.8 6.9 7.0 7.1 7.1 7.0 7.0 7.0 6.8 6.7 6.7 6.6 6.5 6.4 6.3 6.4 6.3 6.1 6.3 6.9 7.1 7.0 6.9 6.9 7.1 6.6 6.2 6.0 5.5 5.4 5.9 5.9 5.9 5.5 5.6 5.4 5.1 5.2 5.5 5.8 5.7 6.7 6.5 6.1 6.2 6.3 5.7 5.4 5.5
6.4 6.6 6.7 6.8 6.9 6.8 6.9 7.0 7.0 6.9 6.9 7.0 7.0 7.0 6.8 6.8 6.8 6.4 6.2 6.3 6.1 6.1 6.3 6.4 6.5 6.2 6.6 6.5 6.4 6.3 5.9 5.8 5.7 5.7 5.7 5.8 5.6 5.5 5.3 5.4 5.6 5.7 5.0 5.9 6.2 6.4 6.5 6.4 6.3 6.0 5.6 5.1 5.2 5.3
6.5 6.7 6.7 6.7 6.7 6.9 7.3 7.3 7.2 7.2 7.3 7.1 6.9 7.1 6.7 6.4 6.4 6.4 6.7 6.3 6.3 6.2 6.3 6.8 6.4 6.5 6.6 6.5 6.3 6.4 6.4 6.1 6.0 5.5 5.6 5.6 5.4 5.5 5.2 5.6 5.7 5.8 5.9 5.8 5.9 5.9 6.0 5.8 5.7 5.6 5.4 5.5 6.1 5.8
6.4 6.5 6.5 6.5 6.5 6.7 7.0 7.3 7.4 7.2 7.1 7.3 7.3 7.0 6.4 6.4 6.5 6.3 6.3 6.2 6.0 6.1 6.5 6.9 6.5 6.5 6.4 6.4 6.3 6.2 6.7 6.3 5.7 5.8 5.7 5.4 5.2 5.3 5.3 5.6 5.6 5.5 5.6 5.7 5.7 5.9 5.6 5.6 5.7 5.9 5.9 5.9 5.4 5.3
6.5 6.6 6.8 6.7 6.6 6.5 6.6 6.8 7.1 7.2 7.2 7.2 7.1 7.0 6.7 6.5 6.4 6.2 6.2 6.3 6.1 6.3 6.5 6.6 6.7 6.7 6.5 6.0 6.1 6.0 6.3 6.1 6.0 5.8 5.9 5.4 5.3 5.1 5.2 5.4 5.5 5.4 5.4 5.5 5.5 5.4 4.9 5.3 4.9 5.4 5.3 5.0 4.6 4.7
6.4 6.7 6.8 6.6 6.8 7.0 6.8 6.5 6.6 7.0 6.9 7.1 7.1 6.4 6.1 6.3 6.4 6.4 6.4 6.5 6.5 6.8 6.5 6.6 6.4 6.3 6.2 6.2 5.9 6.1 6.1 6.1 6.0 5.8 5.7 5.4 5.4 5.5 5.4 5.1 5.0 5.0 4.8 5.0 5.1 5.1 5.2 5.3 5.5 5.5 5.1 4.7 4.7 4.8
6.5 6.7 6.8 6.7 7.1 7.1 6.9 6.9 7.1 7.0 7.4 7.0 6.5 6.3 6.4 6.8 6.7 6.8 7.0 6.4 6.7 6.5 6.8 7.1 7.2 6.1 6.3 6.1 5.7 6.1 5.9 6.0 6.0 5.8 5.7 5.7 5.7 5.6 5.7 5.5 5.2 5.1 5.2 5.0 5.1 5.3 5.2 5.2 5.1 5.2 5.0 5.0 5.1 5.1
6.6 6.5 6.5 6.8 6.8 6.8 7.1 7.0 6.9 7.1 7.2 6.7 6.5 6.4 6.6 6.6 6.7 6.8 6.8 6.5 6.6 6.3 7.1 7.1 7.2 7.3 6.6 6.0 5.9 6.0 6.1 5.8 5.8 5.9 5.9 6.1 5.9 6.0 6.0 5.8 5.5 5.7 5.5 5.2 5.2 5.3 5.4 5.3 5.3 5.6 5.8 5.9 5.9 6.1
6.8 6.7 6.8 6.7 6.8 6.9 7.1 6.9 7.3 7.1 6.8 6.6 6.5 6.7 6.8 7.0 6.7 6.6 6.8 7.0 6.8 6.9 7.1 7.0 6.7 6.6 6.1 5.9 5.9 5.6 5.5 5.6 5.7 5.9 6.0 6.0 6.0 6.0 5.8 5.7 5.6 5.8 5.7 5.6 5.5 5.2 5.2 5.2 5.4 5.7 5.8 5.7 5.9 5.9
6.8 6.9 6.9 7.0 7.0 6.9 7.3 7.3 6.6 6.7 6.7 6.6 6.5 6.9 6.8 6.3 6.6 6.4 6.8 6.7 6.8 6.9 7.0 6.8 6.2 6.1 6.1 6.0 5.8 5.5 5.6 5.9 5.8 5.8 5.9 5.9 6.0 6.0 6.0 6.0 6.1 5.8 6.2 6.2 5.8 5.9 5.7 5.6 5.4 5.7 5.8 5.9 5.9 6.2
6.8 7.0 7.1 7.2 7.3 7.2 7.2 6.7 6.6 6.9 7.0 7.2 6.9 6.9 6.8 6.8 6.7 6.5 6.5 6.7 6.8 6.6 6.9 6.3 6.1 6.0 5.9 6.0 6.0 6.1 6.1 5.9 5.9 6.0 5.9 5.8 5.7 5.9 5.9 6.0 6.1 6.0 6.3 6.3 6.2 6.5 6.1 6.1 6.1 6.0 5.7 6.2 5.9 5.6
6.7 6.8 7.0 7.2 7.4 7.3 7.0 6.4 6.4 6.3 6.7 6.7 6.9 7.1 7.0 6.7 6.7 6.5 6.5 6.6 6.7 6.5 6.5 6.5 6.2 5.9 6.0 5.9 5.8 5.8 5.8 5.8 5.8 5.7 5.7 5.8 5.9 5.9 6.1 6.1 6.2 6.2 6.2 6.3 6.3 6.1 6.2 6.0 6.2 6.2 5.8 5.6 5.8 5.5
6.7 6.6 6.9 7.1 7.3 7.5 6.0 6.3 6.1 6.3 6.2 6.3 6.6 6.7 6.7 6.5 6.7 6.9 6.7 6.6 6.5 6.3 6.3 5.9 5.9 5.9 6.0 6.1 6.2 6.2 6.1 6.0 6.1 6.2 6.1 5.9 6.0 6.1 6.1 6.1 6.0 5.9 6.1 6.2 6.1 6.0 5.7 5.8 6.1 6.1 6.1 6.0 6.1 5.9
6.7 6.3 6.4 7.2 7.0 7.0 6.4 6.0 6.1 6.0 6.3 6.2 6.3 6.4 6.3 6.6 7.1 7.1 6.9 7.2 7.2 6.1 6.2 6.1 6.2 6.1 6.2 6.3 6.3 6.4 6.3 6.2 6.3 6.3 6.1 6.1 6.1 6.3 6.3 6.2 6.1 6.2 5.9 5.8 5.6 5.5 5.4 5.8 6.2 6.1 5.9 5.5 6.3 6.0
6.6 6.6 6.8 7.0 6.9 6.5 6.4 6.5 6.3 6.3 6.3 6.5 6.3 6.4 6.3 6.4 6.8 6.8 6.8 6.8 6.4 6.2 6.1 6.2 6.2 6.3 6.7 6.6 6.4 6.6 6.3 6.2 6.2 6.2 6.3 6.3 6.1 6.0 6.0 5.9 5.8 5.8 5.5 5.4 5.3 5.2 5.0 5.1 5.6 5.8 5.0 5.6 5.3 5.1
7.1 7.1 7.2 7.1 6.8 6.6 6.4 6.3 6.4 6.4 6.4 6.5 6.6 6.7 6.6 6.6 6.4 6.4 6.2 6.3 6.3 6.1 6.2 6.1 5.9 5.9 5.8 5.9 6.3 6.3 6.3 6.0 6.2 6.0 6.0 6.1 6.1 6.0 6.0 5.9 5.9 5.7 5.5 5.2 5.0 5.0 4.9 4.9 5.2 5.4 4.8 4.8 4.8 4.7
7.3 7.4 7.0 6.9 6.9 6.8 6.7 6.7 6.7 6.5 6.7 6.8 6.9 6.9 6.7 6.6 6.3 6.2 5.9 5.8 5.9 5.8 5.8 5.8 5.7 5.6 5.5 5.6 6.0 6.4 6.5 6.2 5.7 5.9 6.4 6.4 6.0 5.7 6.2 6.1 5.7 5.5 5.6 5.5 5.3 5.2 5.2 5.0 4.9 4.5 4.4 4.5 4.5 4.4
7.4 7.2 7.0 6.7 6.7 6.8 7.0 6.7 6.9 6.9 7.1 7.0 6.9 7.0 6.8 6.7 6.3 6.2 6.3 6.0 5.9 5.9 5.8 5.7 5.6 5.6 5.5 5.4 5.3 5.8 6.1 5.6 5.4 5.5 5.2 5.6 6.2 5.5 5.3 5.4 5.3 5.2 5.6 5.1 5.3 5.5 5.2 5.2 5.3 5.1 5.1 4.1 4.1 4.3
7.1 7.0 6.8 6.8 6.7 6.8 6.7 7.1 7.3 7.1 7.2 7.1 7.2 7.0 6.9 6.2 6.3 6.1 6.0 5.8 5.7 5.5 5.4 5.6 5.7 5.6 5.4 5.3 5.3 5.3 5.2 5.3 5.6 5.4 5.2 5.0 5.2 5.9 5.9 5.7 5.3 5.3 5.2 4.9 5.4 5.5 5.2 5.5 5.5 5.3 5.0 5.0 4.8 4.3
7.0 7.1 7.0 7.0 7.0 7.1 7.0 7.1 7.1 7.2 7.0 7.0 7.1 6.9 6.9 6.7 6.2 6.1 6.1 6.3 6.2 5.8 5.7 5.7 5.7 5.3 5.3 5.4 5.3 5.1 5.1 5.1 5.8 6.1 5.2 4.9 4.7 4.8 5.4 5.6 5.6 6.0 5.5 5.4 5.6 5.3 5.3 5.2 5.1 5.0 4.9 4.8 4.5 4.1
7.0 6.7 7.4 6.8 7.0 7.1 6.9 7.1 7.0 7.0 6.9 7.0 7.0 6.7 6.4 6.4 6.1 6.0 5.9 5.8 5.8 5.7 5.6 5.6 5.4 5.5 5.4 5.1 5.1 5.0 4.8 5.1 5.7 6.2 5.4 4.9 4.3 3.9 4.8 5.2 4.8 5.1 5.0 5.1 5.2 5.0 5.0 4.9 4.9 4.9 4.7 4.1 3.6 3.6
6.9 6.9 6.8 7.0 6.8 6.9 6.9 6.8 6.7 6.8 7.2 7.1 7.0 6.8 6.7 6.7 6.5 6.4 6.1 6.0 5.8 5.7 5.7 5.5 5.5 5.4 5.2 5.1 5.1 4.8 4.5 5.6 6.3 6.1 6.1 6.2 5.9 5.6 5.7 5.5 5.4 5.3 5.2 4.8 4.5 5.2 5.5 5.0 5.2 5.1 4.9 4.7 4.6 4.8
7.2 7.2 7.1 7.0 6.8 6.5 6.5 6.4 6.4 7.0 7.2 7.1 7.0 6.9 6.8 6.6 6.4 6.4 6.0 5.3 5.4 5.5 5.5 5.3 5.3 5.1 5.0 4.9 4.8 5.0 4.4 5.6 6.3 6.0 5.8 5.8 5.8 5.7 5.6 5.5 5.4 5.3 5.3 4.8 3.9 3.8 4.1 4.5 3.9 4.1 4.3 4.2 4.2 4.7
7.5 7.5 7.3 7.0 6.8 6.7 6.5 6.3 6.9 6.8 6.9 6.8 6.7 6.6 6.3 6.2 5.9 5.6 5.8 5.8 5.4 5.1 5.3 5.1 4.9 4.6 5.1 5.1 4.6 5.1 4.9 4.2 5.7 5.4 5.5 5.5 5.5 5.5 5.4 5.3 5.2 4.9 4.9 4.0 3.8 3.9 4.1 4.4 4.4 4.6 5.0 5.2 5.2 5.2
7.5 7.4 7.3 7.3 6.9 7.0 7.0 6.5 6.5 6.3 6.2 6.3 6.5 6.4 6.0 6.0 6.1 5.6 5.4 5.4 4.8 4.9 4.9 4.6 4.5 4.3 4.9 5.1 5.0 4.8 4.9 5.2 5.2 5.3 5.3 5.2 5.3 5.2 5.2 5.3 5.2 5.2 5.3 4.9 4.8 5.2 5.6 5.8 5.8 5.9 5.8 5.7 5.7 5.6
7.5 7.4 7.3 7.3 7.3 7.2 6.7 6.8 7.0 6.8 6.4 6.3 6.3 6.2 6.1 6.1 5.8 5.5 5.1 5.0 5.1 5.5 5.3 5.2 4.6 4.4 4.8 5.2 5.2 5.0 5.0 5.3 5.2 5.2 5.2 5.3 5.3 5.3 5.4 5.5 5.5 5.5 5.5 5.6 5.6 5.7 5.7 5.9 5.9 5.9 5.9 5.9 5.9 5.9
Wind_Speed
27 27 26 26 27 26 28 20 19 17 17 17 18 15 13 15 11 7 5 7 4 4 11 17 23 19 15 9 8 5 7 7 9 12 10 7 10 9 12 17 10 8 9 11 11 11 15 14 17 18 4 3 5 8
26 24 25 26 24 23 23 21 19 17 16 16 14 13 10 8 7 8 5 5 4 5 8 18 20 24 24 21 14 9 7 7 4 4 1 4 7 5 12 12 17 13 14 11 12 11 9 7 10 6 7 6 13 13
25 22 23 22 22 23 22 21 19 18 16 14 12 9 10 11 10 9 5 6 2 3 10 14 17 20 22 25 20 13 9 9 5 4 2 2 5 4 5 10 17 15 12 15 15 13 4 11 9 8 11 19 18 20
21 20 20 21 23 22 22 24 17 16 14 13 13 12 12 12 10 9 4 3 3 3 5 11 6 16 18 16 21 18 17 6 5 2 4 3 3 2 4 7 8 6 10 12 14 15 14 12 10 11 17 17 18 19
19 19 19 21 23 22 19 19 18 16 14 14 13 13 13 12 12 12 7 7 6 3 4 11 20 23 17 13 11 15 14 12 8 3 1 2 2 3 3 3 3 5 4 4 1 11 13 12 11 14 17 18 18 19
19 20 20 21 22 21 19 19 19 18 17 16 15 14 14 13 12 6 3 2 7 4 3 6 12 14 15 17 12 12 11 10 6 2 1 2 7 4 3 2 4 7 5 8 5 5 21 20 18 19 19 18 18 18
19 20 21 21 20 20 20 20 21 21 21 20 19 17 16 14 8 4 4 3 14 6 3 5 6 6 10 11 10 8 11 7 4 3 3 2 4 3 1 2 6 6 3 9 12 8 12 17 12 16 18 19 19 16
20 21 21 21 21 20 21 22 23 25 26 24 21 18 17 15 14 7 5 13 4 2 1 3 5 5 9 9 6 8 7 4 3 2 2 4 1 2 2 1 3 8 11 8 8 13 13 16 16 17 17 17 19 17
19 20 21 21 22 23 22 24 27 28 29 28 22 16 6 4 3 1 10 6 2 2 2 3 3 5 8 3 5 4 3 4 5 4 3 0 0 2 6 4 5 8 5 14 12 13 14 15 15 16 14 14 15 15
20 22 22 23 24 25 27 28 29 28 31 30 9 3 2 1 12 11 2 2 3 4 4 4 6 3 3 5 4 6 8 5 3 2 0 2 2 5 10 6 6 6 6 8 17 15 14 14 12 11 10 8 9 10
20 22 23 26 27 27 28 27 27 25 19 2 3 3 8 9 2 3 3 4 3 4 4 4 7 7 5 4 5 2 2 1 3 2 0 2 2 3 7 7 7 7 8 9 10 12 10 9 7 6 5 5 7 0
22 24 26 26 26 26 28 25 21 10 5 6 4 6 4 3 1 3 5 5 3 3 3 4 5 7 1 4 6 4 3 2 4 1 3 2 2 3 4 5 7 5 8 9 7 4 5 6 10 8 6 6 6 9
26 27 27 27 24 23 22 24 17 12 15 3 3 4 5 1 4 4 5 4 3 3 3 4 8 3 5 6 1 2 4 3 5 3 3 2 1 2 4 6 13 5 2 3 4 2 7 8 7 7 6 4 3 5
29 31 29 27 22 23 24 22 16 7 2 3 4 5 4 3 3 4 10 7 7 2 10 4 1 5 3 2 1 5 4 5 3 3 4 2 3 7 9 5 8 8 7 2 6 6 10 15 10 8 6 7 9 6
30 35 32 18 20 28 29 23 14 4 3 3 4 4 5 5 6 11 11 4 6 8 9 7 4 7 4 1 2 3 4 5 5 4 2 2 4 2 2 7 5 4 6 8 10 11 9 8 10 7 10 9 7 6
29 33 4 23 29 32 32 22 4 3 2 2 2 9 9 11 14 14 14 10 14 2 3 2 8 5 7 5 7 8 3 5 3 2 2 1 3 8 7 10 5 8 7 9 8 6 8 11 6 8 7 6 6 6
29 3 25 30 31 34 21 2 2 1 4 5 7 9 10 9 8 11 11 12 11 12 11 6 8 8 6 5 5 4 3 4 5 4 5 6 8 5 7 7 14 11 4 4 5 11 6 5 3 4 7 10 9 9
6 17 26 28 25 13 2 3 5 4 7 7 8 8 9 9 12 12 8 8 8 9 10 9 5 7 5 5 3 2 1 1 1 2 3 3 4 5 3 5 6 6 14 10 8 8 10 9 8 6 6 9 9 8
17 22 27 28 11 5 3 4 4 5 7 9 10 10 9 10 9 10 8 9 11 9 10 8 6 5 9 6 9 8 7 5 4 4 4 6 6 4 6 6 5 8 10 8 3 4 9 11 10 9 9 6 4 6
29 19 17 23 2 4 3 2 3 3 5 6 7 8 9 12 11 12 13 13 12 11 10 8 9 10 9 9 8 7 7 6 6 6 4 5 7 9 8 5 6 6 9 10 10 12 9 10 10 10 9 8 9 9
9 9 14 6 2 6 5 4 3 4 4 5 8 8 8 9 11 13 11 11 11 5 8 8 9 8 10 8 8 10 9 9 7 6 7 8 8 8 9 10 11 9 9 9 9 8 10 9 9 10 9 10 8 9
5 13 4 1 2 3 3 3 4 4 4 4 6 6 5 9 10 7 6 11 7 4 4 5 4 8 10 13 12 11 5 3 6 4 3 2 5 4 4 3 4 5 5 7 7 8 8 9 8 9 8 8 9 8
13 4 3 2 3 2 2 2 2 3 1 1 4 3 3 5 4 3 4 6 4 1 4 3 5 11 11 11 13 16 16 13 6 9 8 5 5 6 5 5 5 6 7 9 9 9 9 10 11 10 9 8 8 8
4 4 4 4 3 2 2 1 1 1 2 3 2 2 2 3 4 5 7 7 8 9 10 11 9 9 10 13 11 12 12 11 11 10 10 11 9 9 11 9 10 11 11 10 10 10 10 10 10 10 10 10 10 9
3 3 1 4 5 2 1 3 5 3 4 3 1 1 3 3 3 4 7 9 10 9 10 11 11 10 10 10 10 10 12 11 9 8 9 9 9 9 9 10 10 11 11 10 11 12 11 12 12 13 13 12 13 12
1 3 2 6 5 4 6 6 5 4 4 2 6 5 4 3 4 4 3 6 6 10 10 10 10 10 9 9 10 9 10 10 10 10 9 8 9 9 10 10 10 10 11 10 10 12 12 12 13 16 13 15 15 14
3 2 2 2 4 1 2 1 4 5 5 3 6 6 2 5 5 3 5 9 7 7 8 9 9 8 9 9 9 10 9 10 11 10 9 10 10 10 10 10 11 9 10 11 11 12 12 13 13 12 11 11 11 11
6 2 9 5 1 9 1 6 6 6 8 6 3 4 4 4 1 2 3 4 7 8 8 6 8 6 9 10 10 10 9 11 12 12 8 10 9 10 11 9 9 7 8 8 9 9 10 10 10 10 10 10 10 12
2 5 4 7 11 6 7 8 9 7 9 8 3 5 3 2 1 3 2 4 5 5 7 9 9 9 10 10 9 10 10 11 13 16 15 11 11 10 10 9 9 8 8 8 8 6 8 9 8 7 11 10 10 10
7 7 5 3 9 6 8 5 8 8 9 8 5 4 3 3 3 3 6 6 7 8 10 10 9 9 9 10 9 10 9 10 10 10 10 10 10 9 9 9 9 9 8 8 8 7 4 10 7 8 9 9 8 9
4 5 3 5 5 6 6 7 7 7 7 8 6 5 5 3 1 0 8 9 9 9 9 9 9 9 9 10 9 7 8 8 11 12 10 8 8 8 9 8 8 8 8 9 8 9 10 10 10 11 11 12 13 11
2 5 7 2 5 5 5 4 3 1 4 3 3 4 3 3 1 2 3 7 8 9 9 10 9 8 8 8 8 7 4 8 8 9 12 8 8 9 10 9 10 10 11 11 11 11 12 12 10 11 10 12 13 13
5 5 4 5 2 2 8 4 2 3 2 4 1 2 1 4 4 4 3 7 7 8 9 9 9 8 8 8 9 7 7 8 11 7 5 2 3 6 8 8 9 11 12 9 9 8 9 9 9 12 13 14 14 14
Wind_Direction
329 329 331 328 328 331 335 335 326 320 314 314 314 311 300 298 290 254 272 225 197 224 277 270 268 275 261 235 242 282 330 251 220 218 219 196 244 256 259 276 224 230 226 233 230 218 233 130 159 223 116 310 348 348
330 330 331 333 335 338 338 341 337 330 325 321 317 321 318 310 298 278 272 259 247 238 267 295 274 270 271 264 277 237 189 252 294 250 148 306 270 308 294 272 260 246 246 240 250 253 287 81 83 109 94 73 34 14
332 335 336 339 339 338 337 334 332 330 327 331 343 324 314 308 286 265 280 300 255 263 274 255 261 262 250 242 242 261 270 213 293 90 320 267 266 336 264 256 274 249 0 240 218 227 156 126 113 92 90 68 54 44
344 343 341 339 338 338 339 352 351 341 341 337 335 327 318 309 291 266 265 266 282 288 280 290 268 266 293 217 214 224 241 275 284 246 255 265 279 47 305 312 305 359 320 325 226 132 106 71 74 82 81 77 66 54
338 338 336 335 336 341 341 349 351 350 345 338 333 327 319 312 310 282 261 257 227 226 297 299 293 272 257 230 209 197 217 225 252 304 46 301 285 257 236 266 314 358 345 307 13 149 115 120 103 81 78 75 74 67
342 341 336 333 337 342 343 343 343 339 332 326 322 318 315 317 317 302 300 276 221 203 274 302 335 298 274 182 202 191 204 222 234 259 21 221 253 196 249 309 293 353 310 35 43 313 92 86 80 69 69 67 69 63
345 344 343 339 341 341 338 335 334 331 326 322 309 298 294 297 297 270 277 299 327 294 262 295 290 323 314 152 184 188 197 209 198 115 231 249 259 293 154 245 334 327 67 105 95 78 71 84 88 78 74 58 61 61
345 342 340 339 339 335 329 326 324 322 320 318 310 293 280 285 273 262 233 234 270 293 264 275 289 291 236 176 188 173 178 134 117 179 235 239 45 297 216 303 107 16 85 127 140 109 106 91 71 59 55 71 68 53
332 330 331 330 325 320 320 326 326 322 316 313 310 290 273 223 244 61 113 111 169 215 269 260 279 338 346 69 283 145 139 198 160 208 234 335 169 353 322 307 72 48 55 100 93 97 87 81 70 64 62 50 59 49
326 323 321 318 314 312 313 316 322 323 313 309 298 236 263 159 122 126 175 206 194 201 223 246 203 272 173 197 233 205 183 201 175 61 128 71 30 347 344 46 90 89 52 85 97 84 79 73 75 80 79 87 67 54
327 321 317 314 311 310 310 315 325 327 304 270 307 275 338 327 223 199 250 229 188 222 222 259 252 245 175 202 243 6 30 278 93 332 69 76 61 358 344 41 74 87 77 77 87 107 118 122 104 93 101 90 86 51
322 318 316 315 313 310 309 318 326 312 340 320 285 282 267 298 290 342 310 298 226 266 255 271 280 313 342 31 44 352 303 47 75 94 56 53 74 50 41 48 50 75 95 85 74 48 329 310 137 142 140 166 202 215
320 318 318 318 314 309 314 322 325 304 286 239 246 316 339 339 311 295 346 309 283 268 280 312 15 34 336 34 56 298 39 24 141 65 71 61 75 165 253 110 122 146 104 96 100 211 272 164 104 78 64 131 85 70
318 317 319 318 315 319 328 324 318 327 296 359 347 336 4 342 311 293 288 282 276 323 290 321 297 120 244 262 124 3 30 37 68 46 45 145 234 254 235 215 160 178 262 139 128 71 47 74 70 35 66 58 76 39
317 315 316 314 332 333 327 319 311 261 276 19 9 338 339 293 271 255 285 16 313 329 320 348 342 44 52 73 2 69 60 42 24 26 54 36 329 20 143 200 207 80 69 73 54 57 59 83 92 80 82 71 66 55
318 311 0 355 345 328 320 312 235 231 303 319 290 353 1 358 2 352 351 349 354 40 297 351 22 42 32 29 17 20 47 17 343 334 359 221 32 29 358 19 348 98 80 64 58 58 64 73 31 63 71 101 95 70
311 265 3 347 332 317 307 280 261 257 2 20 354 12 15 1 9 352 349 343 356 14 28 36 32 25 28 30 26 20 4 315 360 33 35 50 75 349 6 25 52 3 28 117 94 77 347 64 62 52 52 34 23 25
275 324 338 326 328 295 176 340 322 24 23 16 14 12 23 352 9 357 3 3 355 18 49 56 55 40 31 11 36 12 353 322 95 133 130 101 76 115 53 29 40 24 75 80 8 342 57 80 74 68 18 45 37 3
298 304 304 302 306 307 340 26 335 351 31 11 5 32 9 16 348 357 26 35 45 42 49 48 50 32 40 28 34 36 33 46 62 75 86 101 89 103 122 125 116 62 63 72 139 43 53 48 39 25 23 22 51 34
293 284 291 298 209 288 19 352 283 6 10 340 6 31 21 32 18 15 37 28 39 38 40 45 51 45 39 27 26 34 39 35 32 49 93 63 67 55 58 100 83 98 59 42 55 29 41 34 26 9 11 1 19 2
260 358 325 302 216 19 7 350 4 13 346 320 2 50 33 48 45 31 29 36 51 44 47 55 61 56 44 39 40 43 42 52 42 31 20 36 41 44 31 34 43 37 38 35 30 37 41 31 21 357 357 21 360 327
1 332 289 58 2 6 60 25 3 342 320 19 40 54 47 55 54 44 43 49 50 35 19 20 4 53 52 38 27 23 46 95 97 100 78 79 53 70 67 62 60 48 43 36 30 29 34 31 16 353 360 4 347 360
291 210 278 351 10 53 277 203 335 329 116 24 339 36 25 42 40 57 51 27 32 252 76 49 37 54 38 51 42 16 1 2 40 33 33 29 20 19 16 30 47 51 30 29 20 17 10 7 9 338 347 8 343 360
176 314 337 347 345 317 216 129 213 288 11 17 25 18 84 101 59 73 50 28 34 41 41 23 26 30 32 25 30 30 1 5 8 48 13 2 16 52 42 33 48 39 21 16 12 7 358 353 348 348 354 342 359 6
316 323 265 293 219 283 6 27 344 0 336 329 120 143 191 134 103 80 48 20 23 22 11 21 21 21 22 18 18 16 11 7 3 24 33 28 8 12 50 62 51 34 10 16 9 2 1 2 355 357 344 10 15 351
254 169 56 350 348 3 6 1 8 349 329 304 6 22 64 333 53 55 46 338 358 10 21 20 10 358 2 0 6 16 15 13 8 356 9 48 50 31 22 20 21 26 355 18 12 357 3 7 0 349 345 351 357 350
341 20 284 263 273 327 59 220 305 21 62 318 338 2 47 51 53 55 23 11 18 3 355 348 332 337 344 7 6 6 18 22 14 347 346 72 55 43 28 23 29 12 348 22 10 1 11 2 346 342 348 351 352 356
229 116 128 226 303 93 272 6 41 3 358 345 47 13 38 51 80 30 347 310 313 314 316 309 286 346 17 7 -0 7 22 21 13 357 3 91 71 53 28 15 28 359 19 40 13 21 9 353 356 356 357 351 3 13
54 69 316 36 41 35 37 49 24 30 358 343 49 37 63 61 254 237 321 316 284 287 306 4 5 10 16 358 14 20 41 35 18 12 2 4 12 15 15 1 8 4 7 7 80 52 19 341 325 360 352 5 4 4
14 104 76 337 46 61 48 68 48 47 58 64 96 105 101 182 219 257 269 287 338 2 17 6 9 22 12 360 17 11 52 56 40 28 359 351 355 2 358 5 3 2 2 350 355 6 49 341 23 19 9 359 7 352
8 13 55 69 48 108 102 101 94 90 79 76 64 95 109 96 308 20 26 5 7 10 17 356 16 31 20 3 16 19 3 59 58 34 14 344 1 3 359 4 358 1 353 339 355 10 16 3 6 8 5 359 358 350
4 33 356 31 156 124 126 171 123 93 136 131 139 150 181 167 274 168 34 16 14 8 13 360 7 29 42 1 19 18 358 58 47 33 23 11 9 5 350 9 1 3 358 353 6 13 13 7 1 2 353 355 351 354
1 27 354 360 324 158 157 131 144 195 212 174 229 79 148 66 64 57 55 40 32 22 4 353 359 27 35 33 20 356 68 92 110 130 150 149 318 327 331 15 3 1 351 5 8 14 7 353 359 0 2 359 358 354